Time,TemperatureF,DewpointF,PressureIn,WindDirection,WindDirectionDegrees,WindSpeedMPH,WindSpeedGustMPH,Humidity,HourlyPrecipIn,Conditions,Clouds,dailyrainin,SolarRadiationWatts/m^2,SoftwareType,DateUTC
2013-01-02 00:02:00,28.0,26.0,-100.00,North,356,4.0,7.0,91,0.00,,,0.00,0.000000,,2013-01-02 08:02:00,
2013-01-02 00:11:00,28.0,26.0,-100.00,North,356,4.0,7.0,91,0.00,,,0.00,0.000000,,2013-01-02 08:11:00,
2013-01-02 00:22:00,28.0,26.0,-100.00,North,356,4.0,7.0,91,0.00,,,0.00,0.000000,,2013-01-02 08:22:00,
2013-01-02 00:53:00,28.0,25.0,-100.00,NNW,331,7.0,11.0,89,0.00,,,0.00,0.000000,,2013-01-02 08:53:00,
2013-01-02 01:02:00,28.0,25.0,-100.00,NNW,331,7.0,11.0,89,0.00,,,0.00,0.000000,,2013-01-02 09:02:00,
2013-01-02 01:12:00,28.0,25.0,-100.00,NNW,331,7.0,11.0,89,0.00,,,0.00,0.000000,,2013-01-02 09:12:00,
2013-01-02 01:22:00,28.0,25.0,-100.00,NNW,331,7.0,11.0,89,0.00,,,0.00,0.000000,,2013-01-02 09:22:00,
2013-01-02 01:52:00,27.0,25.0,-100.00,NE,48,1.0,9.0,91,0.00,,,0.00,0.000000,,2013-01-02 09:52:00,
2013-01-02 02:02:00,27.0,25.0,-100.00,NE,48,1.0,9.0,91,0.00,,,0.00,0.000000,,2013-01-02 10:02:00,
2013-01-02 02:12:00,27.0,25.0,-100.00,NE,48,1.0,9.0,91,0.00,,,0.00,0.000000,,2013-01-02 10:12:00,
2013-01-02 02:22:00,27.0,25.0,-100.00,NE,48,1.0,9.0,91,0.00,,,0.00,0.000000,,2013-01-02 10:22:00,
2013-01-02 02:52:00,27.0,24.0,-100.00,NNW,329,8.0,10.0,90,0.00,,,0.00,0.000000,,2013-01-02 10:52:00,
2013-01-02 03:02:00,27.0,24.0,-100.00,NNW,329,8.0,10.0,90,0.00,,,0.00,0.000000,,2013-01-02 11:02:00,
2013-01-02 03:11:00,27.0,24.0,-100.00,NNW,329,8.0,10.0,90,0.00,,,0.00,0.000000,,2013-01-02 11:11:00,
2013-01-02 03:22:00,27.0,24.0,-100.00,NNW,329,8.0,10.0,90,0.00,,,0.00,0.000000,,2013-01-02 11:22:00,
2013-01-02 03:52:00,28.0,26.0,-100.00,NNW,327,7.0,10.0,91,0.00,,,0.00,0.000000,,2013-01-02 11:52:00,
2013-01-02 04:02:00,28.0,26.0,-100.00,NNW,327,7.0,10.0,91,0.00,,,0.00,0.000000,,2013-01-02 12:02:00,
2013-01-02 04:12:00,28.0,26.0,-100.00,NNW,327,7.0,10.0,91,0.00,,,0.00,0.000000,,2013-01-02 12:12:00,
2013-01-02 04:22:00,28.0,26.0,-100.00,NNW,327,7.0,10.0,91,0.00,,,0.00,0.000000,,2013-01-02 12:22:00,
2013-01-02 04:53:00,28.0,25.0,-100.00,NNE,20,4.0,10.0,88,0.00,,,0.00,0.000000,,2013-01-02 12:53:00,
2013-01-02 05:02:00,28.0,25.0,-100.00,NNE,20,4.0,10.0,88,0.00,,,0.00,0.000000,,2013-01-02 13:02:00,
2013-01-02 05:12:00,28.0,25.0,-100.00,NNE,20,4.0,10.0,88,0.00,,,0.00,0.000000,,2013-01-02 13:12:00,
2013-01-02 05:22:00,28.0,25.0,-100.00,NNE,20,4.0,10.0,88,0.00,,,0.00,0.000000,,2013-01-02 13:22:00,
2013-01-02 05:52:00,28.0,24.0,-100.00,NNE,30,4.0,9.0,83,0.00,,,0.00,0.000000,,2013-01-02 13:52:00,
2013-01-02 06:02:00,28.0,24.0,-100.00,NNE,30,4.0,9.0,83,0.00,,,0.00,0.000000,,2013-01-02 14:02:00,
2013-01-02 06:12:00,28.0,24.0,-100.00,NNE,30,4.0,9.0,83,0.00,,,0.00,0.000000,,2013-01-02 14:12:00,
2013-01-02 06:22:00,28.0,24.0,-100.00,NNE,30,4.0,9.0,83,0.00,,,0.00,0.000000,,2013-01-02 14:22:00,
2013-01-02 06:53:00,28.0,23.0,-100.00,NNW,342,5.0,10.0,81,0.00,,,0.00,0.000000,,2013-01-02 14:53:00,
2013-01-02 07:02:00,28.0,23.0,-100.00,NNW,342,5.0,10.0,81,0.00,,,0.00,0.000000,,2013-01-02 15:02:00,
2013-01-02 07:12:00,28.0,23.0,-100.00,NNW,342,5.0,10.0,81,0.00,,,0.00,0.000000,,2013-01-02 15:12:00,
2013-01-02 07:22:00,28.0,23.0,-100.00,NNW,342,5.0,10.0,81,0.00,,,0.00,0.000000,,2013-01-02 15:22:00,
2013-01-02 07:53:00,27.0,24.0,-100.00,NNW,335,7.0,10.0,88,0.00,,,0.00,0.000000,,2013-01-02 15:53:00,
2013-01-02 08:03:00,27.0,24.0,-100.00,NNW,335,7.0,10.0,88,0.00,,,0.00,0.000000,,2013-01-02 16:03:00,
2013-01-02 08:12:00,27.0,24.0,-100.00,NNW,335,7.0,10.0,88,0.00,,,0.00,0.000000,,2013-01-02 16:12:00,
2013-01-02 08:22:00,27.0,24.0,-100.00,NNW,335,7.0,10.0,88,0.00,,,0.00,0.000000,,2013-01-02 16:22:00,
2013-01-02 08:53:00,27.0,23.0,-100.00,NNW,335,9.0,12.0,85,0.00,,,0.00,6.000000,,2013-01-02 16:53:00,
2013-01-02 09:03:00,27.0,23.0,-100.00,NNW,335,9.0,12.0,85,0.00,,,0.00,6.000000,,2013-01-02 17:03:00,
2013-01-02 09:12:00,27.0,23.0,-100.00,NNW,335,9.0,12.0,85,0.00,,,0.00,6.000000,,2013-01-02 17:12:00,
2013-01-02 09:22:00,27.0,23.0,-100.00,NNW,335,9.0,12.0,85,0.00,,,0.00,6.000000,,2013-01-02 17:22:00,
2013-01-02 09:53:00,28.0,24.0,-100.00,NW,318,7.0,12.0,85,0.00,,,0.00,31.000000,,2013-01-02 17:53:00,
2013-01-02 10:02:00,28.0,24.0,-100.00,NW,318,7.0,12.0,85,0.00,,,0.00,31.000000,,2013-01-02 18:02:00,
2013-01-02 10:12:00,28.0,24.0,-100.00,NW,318,7.0,12.0,85,0.00,,,0.00,31.000000,,2013-01-02 18:12:00,
2013-01-02 10:22:00,28.0,24.0,-100.00,NW,318,7.0,12.0,85,0.00,,,0.00,31.000000,,2013-01-02 18:22:00,
2013-01-02 10:53:00,28.0,24.0,-100.00,NW,320,9.0,11.0,84,0.00,,,0.00,81.000000,,2013-01-02 18:53:00,
2013-01-02 11:02:00,28.0,24.0,-100.00,NW,320,9.0,11.0,84,0.00,,,0.00,81.000000,,2013-01-02 19:02:00,
2013-01-02 11:12:00,28.0,24.0,-100.00,NW,320,9.0,11.0,84,0.00,,,0.00,81.000000,,2013-01-02 19:12:00,
2013-01-02 11:22:00,28.0,24.0,-100.00,NW,320,9.0,11.0,84,0.00,,,0.00,81.000000,,2013-01-02 19:22:00,
2013-01-02 11:52:00,29.0,24.0,-100.00,NNW,342,9.0,12.0,80,0.00,,,0.00,140.000000,,2013-01-02 19:52:00,
2013-01-02 12:02:00,29.0,24.0,-100.00,NNW,342,9.0,12.0,80,0.00,,,0.00,140.000000,,2013-01-02 20:02:00,
2013-01-02 12:12:00,29.0,24.0,-100.00,NNW,342,9.0,12.0,80,0.00,,,0.00,140.000000,,2013-01-02 20:12:00,
2013-01-02 12:22:00,29.0,24.0,-100.00,NNW,342,9.0,12.0,80,0.00,,,0.00,140.000000,,2013-01-02 20:22:00,
2013-01-02 12:53:00,30.0,23.0,-100.00,NNW,340,8.0,12.0,75,0.00,,,0.00,165.000000,,2013-01-02 20:53:00,
2013-01-02 13:03:00,30.0,23.0,-100.00,NNW,340,8.0,12.0,75,0.00,,,0.00,165.000000,,2013-01-02 21:03:00,
2013-01-02 13:12:00,30.0,23.0,-100.00,NNW,340,8.0,12.0,75,0.00,,,0.00,165.000000,,2013-01-02 21:12:00,
2013-01-02 13:22:00,30.0,23.0,-100.00,NNW,340,8.0,12.0,75,0.00,,,0.00,165.000000,,2013-01-02 21:22:00,
2013-01-02 13:53:00,29.0,22.0,-100.00,NNW,347,10.0,13.0,75,0.00,,,0.00,156.000000,,2013-01-02 21:53:00,
2013-01-02 14:02:00,29.0,22.0,-100.00,NNW,347,10.0,13.0,75,0.00,,,0.00,156.000000,,2013-01-02 22:02:00,
2013-01-02 14:12:00,29.0,22.0,-100.00,NNW,347,10.0,13.0,75,0.00,,,0.00,156.000000,,2013-01-02 22:12:00,
2013-01-02 14:22:00,29.0,22.0,-100.00,NNW,347,10.0,13.0,75,0.00,,,0.00,156.000000,,2013-01-02 22:22:00,
2013-01-02 14:53:00,29.0,23.0,-100.00,NNW,341,9.0,13.0,77,0.00,,,0.00,112.000000,,2013-01-02 22:53:00,
2013-01-02 15:02:00,29.0,23.0,-100.00,NNW,341,9.0,13.0,77,0.00,,,0.00,112.000000,,2013-01-02 23:02:00,
2013-01-02 15:12:00,29.0,23.0,-100.00,NNW,341,9.0,13.0,77,0.00,,,0.00,112.000000,,2013-01-02 23:12:00,
2013-01-02 15:22:00,29.0,23.0,-100.00,NNW,341,9.0,13.0,77,0.00,,,0.00,112.000000,,2013-01-02 23:22:00,
2013-01-02 15:53:00,29.0,23.0,-100.00,NNW,327,9.0,12.0,78,0.00,,,0.00,52.000000,,2013-01-02 23:53:00,
2013-01-02 16:02:00,29.0,23.0,-100.00,NNW,327,9.0,12.0,78,0.00,,,0.00,52.000000,,2013-01-03 00:02:00,
2013-01-02 16:12:00,29.0,23.0,-100.00,NNW,327,9.0,12.0,78,0.00,,,0.00,52.000000,,2013-01-03 00:12:00,
2013-01-02 16:22:00,29.0,23.0,-100.00,NNW,327,9.0,12.0,78,0.00,,,0.00,52.000000,,2013-01-03 00:22:00,
2013-01-02 16:52:00,29.0,24.0,-100.00,NW,318,8.0,12.0,81,0.00,,,0.00,13.000000,,2013-01-03 00:52:00,
2013-01-02 17:02:00,29.0,24.0,-100.00,NW,318,8.0,12.0,81,0.00,,,0.00,13.000000,,2013-01-03 01:02:00,
2013-01-02 17:12:00,29.0,24.0,-100.00,NW,318,8.0,12.0,81,0.00,,,0.00,13.000000,,2013-01-03 01:12:00,
2013-01-02 17:22:00,29.0,24.0,-100.00,NW,318,8.0,12.0,81,0.00,,,0.00,13.000000,,2013-01-03 01:22:00,
2013-01-02 17:52:00,29.0,24.0,-100.00,NW,325,8.0,11.0,82,0.00,,,0.00,0.000000,,2013-01-03 01:52:00,
2013-01-02 18:02:00,29.0,24.0,-100.00,NW,325,8.0,11.0,82,0.00,,,0.00,0.000000,,2013-01-03 02:02:00,
2013-01-02 18:12:00,29.0,24.0,-100.00,NW,325,8.0,11.0,82,0.00,,,0.00,0.000000,,2013-01-03 02:12:00,
2013-01-02 18:22:00,29.0,24.0,-100.00,NW,325,8.0,11.0,82,0.00,,,0.00,0.000000,,2013-01-03 02:22:00,
2013-01-02 19:02:00,29.0,24.0,-100.00,NNW,343,7.0,11.0,82,0.00,,,0.00,0.000000,,2013-01-03 03:02:00,
2013-01-02 19:12:00,29.0,24.0,-100.00,NNW,343,7.0,11.0,82,0.00,,,0.00,0.000000,,2013-01-03 03:12:00,
2013-01-02 19:22:00,29.0,24.0,-100.00,NNW,343,7.0,11.0,82,0.00,,,0.00,0.000000,,2013-01-03 03:22:00,
2013-01-02 19:53:00,29.0,24.0,-100.00,NNW,338,7.0,9.0,81,0.00,,,0.00,0.000000,,2013-01-03 03:53:00,
2013-01-02 20:02:00,29.0,24.0,-100.00,NNW,338,7.0,9.0,81,0.00,,,0.00,0.000000,,2013-01-03 04:02:00,
2013-01-02 20:12:00,29.0,24.0,-100.00,NNW,338,7.0,9.0,81,0.00,,,0.00,0.000000,,2013-01-03 04:12:00,
2013-01-02 20:22:00,29.0,24.0,-100.00,NNW,338,7.0,9.0,81,0.00,,,0.00,0.000000,,2013-01-03 04:22:00,
2013-01-02 20:52:00,29.0,25.0,-100.00,North,351,3.0,7.0,86,0.00,,,0.00,0.000000,,2013-01-03 04:52:00,
2013-01-02 21:03:00,29.0,25.0,-100.00,North,351,3.0,7.0,86,0.00,,,0.00,0.000000,,2013-01-03 05:03:00,
2013-01-02 21:12:00,29.0,25.0,-100.00,North,351,3.0,7.0,86,0.00,,,0.00,0.000000,,2013-01-03 05:12:00,
2013-01-02 21:22:00,29.0,25.0,-100.00,North,351,3.0,7.0,86,0.00,,,0.00,0.000000,,2013-01-03 05:22:00,
2013-01-02 21:53:00,29.0,25.0,-100.00,East,101,2.0,5.0,83,0.00,,,0.00,0.000000,,2013-01-03 05:53:00,
2013-01-02 22:02:00,29.0,25.0,-100.00,East,101,2.0,5.0,83,0.00,,,0.00,0.000000,,2013-01-03 06:02:00,
2013-01-02 22:12:00,29.0,25.0,-100.00,East,101,2.0,5.0,83,0.00,,,0.00,0.000000,,2013-01-03 06:12:00,
2013-01-02 22:22:00,29.0,25.0,-100.00,East,101,2.0,5.0,83,0.00,,,0.00,0.000000,,2013-01-03 06:22:00,
2013-01-02 22:52:00,29.0,23.0,-100.00,NNW,341,5.0,7.0,78,0.00,,,0.00,0.000000,,2013-01-03 06:52:00,
2013-01-02 23:02:00,29.0,23.0,-100.00,NNW,341,5.0,7.0,78,0.00,,,0.00,0.000000,,2013-01-03 07:02:00,
2013-01-02 23:12:00,29.0,23.0,-100.00,NNW,341,5.0,7.0,78,0.00,,,0.00,0.000000,,2013-01-03 07:12:00,
2013-01-02 23:22:00,29.0,23.0,-100.00,NNW,341,5.0,7.0,78,0.00,,,0.00,0.000000,,2013-01-03 07:22:00,
2013-01-02 23:53:00,28.0,22.0,-100.00,NNW,331,6.0,8.0,77,0.00,,,0.00,0.000000,,2013-01-03 07:53:00,